******** Week 145 almanac for PRN-1 ******** ID: 1 Health: 0 Eccentricity: 0.01127719879 Time of Applicability(s): 589824 Orbital Inclination(rad): 0.9864539094 Rate of Right Ascen(r/s): -7.817468486e-09 SQRT(A) (m 1/2): 5153.625977 Right Ascen at Week(rad): -1.413036365 Argument of Perigee(rad): 0.8817565751 Mean Anom(rad): -2.019343395 Af0(s): 0.0003557342773 Af1(s/s): -1.091394e-11 week: 145 ******** Week 145 almanac for PRN-2 ******** ID: 2 Health: 0 Eccentricity: 0.02068805695 Time of Applicability(s): 589824 Orbital Inclination(rad): 0.9648103992 Rate of Right Ascen(r/s): -7.954617056e-09 SQRT(A) (m 1/2): 5153.630859 Right Ascen at Week(rad): -1.501851456 Argument of Perigee(rad): -1.453313473 Mean Anom(rad): -1.861398052 Af0(s): -0.0005132522095 Af1(s/s): 0 week: 145 ******** Week 145 almanac for PRN-3 ******** ID: 3 Health: 0 Eccentricity: 0.003864765167 Time of Applicability(s): 589824 Orbital Inclination(rad): 0.9724862952 Rate of Right Ascen(r/s): -8.068907531e-09 SQRT(A) (m 1/2): 5153.642578 Right Ascen at Week(rad): -0.3774783672 Argument of Perigee(rad): 0.9722932747 Mean Anom(rad): 3.098113138 Af0(s): -7.009171143e-05 Af1(s/s): -1.455192e-11 week: 145 ******** Week 145 almanac for PRN-4 ******** ID: 4 Health: 0 Eccentricity: 0.001657485962 Time of Applicability(s): 589824 Orbital Inclination(rad): 0.9612091396 Rate of Right Ascen(r/s): -7.760323248e-09 SQRT(A) (m 1/2): 5153.614746 Right Ascen at Week(rad): 0.7033369327 Argument of Perigee(rad): -3.09613649 Mean Anom(rad): -0.2060736159 Af0(s): -0.0001529958862 Af1(s/s): 3.637979e-12 week: 145 ******** Week 145 almanac for PRN-5 ******** ID: 5 Health: 0 Eccentricity: 0.005886077881 Time of Applicability(s): 589824 Orbital Inclination(rad): 0.9594594428 Rate of Right Ascen(r/s): -8.206056101e-09 SQRT(A) (m 1/2): 5153.597656 Right Ascen at Week(rad): -0.4175539898 Argument of Perigee(rad): 1.012131085 Mean Anom(rad): 0.6281786152 Af0(s): -5.426455078e-05 Af1(s/s): 0 week: 145 ******** Week 145 almanac for PRN-6 ******** ID: 6 Health: 0 Eccentricity: 0.002652645111 Time of Applicability(s): 589824 Orbital Inclination(rad): 0.9858367218 Rate of Right Ascen(r/s): -7.794610391e-09 SQRT(A) (m 1/2): 5153.61084 Right Ascen at Week(rad): -1.421309975 Argument of Perigee(rad): -0.991435078 Mean Anom(rad): -1.659278856 Af0(s): 0.0001409370972 Af1(s/s): 1.091394e-11 week: 145 ******** Week 145 almanac for PRN-7 ******** ID: 7 Health: 0 Eccentricity: 0.01544475555 Time of Applicability(s): 589824 Orbital Inclination(rad): 0.9505911163 Rate of Right Ascen(r/s): -7.988904198e-09 SQRT(A) (m 1/2): 5153.644531 Right Ascen at Week(rad): 1.722652186 Argument of Perigee(rad): -2.29452367 Mean Anom(rad): -2.683696768 Af0(s): 0.0002404221069 Af1(s/s): 3.637979e-12 week: 145 ******** Week 145 almanac for PRN-8 ******** ID: 8 Health: 0 Eccentricity: 0.007178783417 Time of Applicability(s): 589824 Orbital Inclination(rad): 0.9652238549 Rate of Right Ascen(r/s): -7.783181343e-09 SQRT(A) (m 1/2): 5153.664551 Right Ascen at Week(rad): -2.492534524 Argument of Perigee(rad): 0.08666317342 Mean Anom(rad): 0.2699551523 Af0(s): -4.220576172e-05 Af1(s/s): 0 week: 145 ******** Week 145 almanac for PRN-9 ******** ID: 9 Health: 0 Eccentricity: 0.002317905426 Time of Applicability(s): 589824 Orbital Inclination(rad): 0.9542343207 Rate of Right Ascen(r/s): -7.851755628e-09 SQRT(A) (m 1/2): 5153.587891 Right Ascen at Week(rad): 0.6505812511 Argument of Perigee(rad): 1.859879426 Mean Anom(rad): 0.6109217058 Af0(s): -0.0002818741943 Af1(s/s): 0 week: 145 ******** Week 145 almanac for PRN-10 ******** ID: 10 Health: 0 Eccentricity: 0.007455825806 Time of Applicability(s): 589824 Orbital Inclination(rad): 0.9723245082 Rate of Right Ascen(r/s): -8.057478483e-09 SQRT(A) (m 1/2): 5153.626953 Right Ascen at Week(rad): -0.3802755602 Argument of Perigee(rad): -2.530523768 Mean Anom(rad): 2.248667531 Af0(s): -0.0002374074097 Af1(s/s): -1.091394e-11 week: 145 ******** Week 145 almanac for PRN-11 ******** ID: 11 Health: 255 Eccentricity: 0.0002903938293 Time of Applicability(s): 589824 Orbital Inclination(rad): 0.9615566821 Rate of Right Ascen(r/s): -8.080336578e-09 SQRT(A) (m 1/2): 5153.711426 Right Ascen at Week(rad): -1.368693984 Argument of Perigee(rad): 2.874173664 Mean Anom(rad): 0.1112739028 Af0(s): -5.50182251e-05 Af1(s/s): -3.637979e-11 week: 145 ******** Week 145 almanac for PRN-12 ******** ID: 12 Health: 0 Eccentricity: 0.008605957031 Time of Applicability(s): 589824 Orbital Inclination(rad): 0.9707725511 Rate of Right Ascen(r/s): -7.977475151e-09 SQRT(A) (m 1/2): 5153.560059 Right Ascen at Week(rad): 2.835287476 Argument of Perigee(rad): 1.23804908 Mean Anom(rad): 2.939046521 Af0(s): -0.0001258636108 Af1(s/s): -7.275958e-12 week: 145 ******** Week 145 almanac for PRN-13 ******** ID: 13 Health: 0 Eccentricity: 0.005800247192 Time of Applicability(s): 589824 Orbital Inclination(rad): 0.9686153906 Rate of Right Ascen(r/s): -7.668890868e-09 SQRT(A) (m 1/2): 5153.632324 Right Ascen at Week(rad): 0.8030202174 Argument of Perigee(rad): 0.9678767133 Mean Anom(rad): -0.3342149408 Af0(s): 0.0001974626709 Af1(s/s): 7.275958e-12 week: 145 ******** Week 145 almanac for PRN-14 ******** ID: 14 Health: 0 Eccentricity: 0.001341342926 Time of Applicability(s): 589824 Orbital Inclination(rad): 0.9541684075 Rate of Right Ascen(r/s): -8.126052768e-09 SQRT(A) (m 1/2): 5153.586914 Right Ascen at Week(rad): 2.804377913 Argument of Perigee(rad): 3.038321218 Mean Anom(rad): 2.981225749 Af0(s): -5.878659668e-05 Af1(s/s): -3.637979e-12 week: 145 ******** Week 145 almanac for PRN-15 ******** ID: 15 Health: 0 Eccentricity: 0.01392889023 Time of Applicability(s): 589824 Orbital Inclination(rad): 0.9301220602 Rate of Right Ascen(r/s): -8.103194673e-09 SQRT(A) (m 1/2): 5153.675293 Right Ascen at Week(rad): 0.54518224 Argument of Perigee(rad): 1.071248143 Mean Anom(rad): -0.7384012767 Af0(s): -7.084538574e-05 Af1(s/s): 3.637979e-12 week: 145 ******** Week 145 almanac for PRN-16 ******** ID: 16 Health: 0 Eccentricity: 0.01267910004 Time of Applicability(s): 589824 Orbital Inclination(rad): 0.9707485826 Rate of Right Ascen(r/s): -7.966046103e-09 SQRT(A) (m 1/2): 5153.536621 Right Ascen at Week(rad): 2.853910961 Argument of Perigee(rad): 0.6990765407 Mean Anom(rad): 1.083239484 Af0(s): -0.0003632710205 Af1(s/s): -3.637979e-12 week: 145 ******** Week 145 almanac for PRN-17 ******** ID: 17 Health: 0 Eccentricity: 0.01368379593 Time of Applicability(s): 589824 Orbital Inclination(rad): 0.9802760414 Rate of Right Ascen(r/s): -7.634603726e-09 SQRT(A) (m 1/2): 5153.703613 Right Ascen at Week(rad): -2.411017452 Argument of Perigee(rad): -1.505536231 Mean Anom(rad): 0.17520038 Af0(s): 0.0004461751953 Af1(s/s): 3.637979e-12 week: 145 ******** Week 145 almanac for PRN-18 ******** ID: 18 Health: 0 Eccentricity: 0.002090454102 Time of Applicability(s): 589824 Orbital Inclination(rad): 0.9702452452 Rate of Right Ascen(r/s): -7.966046103e-09 SQRT(A) (m 1/2): 5153.578125 Right Ascen at Week(rad): -1.404864622 Argument of Perigee(rad): 3.112358636 Mean Anom(rad): -1.832700328 Af0(s): 0.0002019847168 Af1(s/s): -7.275958e-12 week: 145 ******** Week 145 almanac for PRN-19 ******** ID: 19 Health: 0 Eccentricity: 0.008943080902 Time of Applicability(s): 589824 Orbital Inclination(rad): 0.9789817451 Rate of Right Ascen(r/s): -7.657461821e-09 SQRT(A) (m 1/2): 5153.638672 Right Ascen at Week(rad): -2.366117804 Argument of Perigee(rad): 1.998580351 Mean Anom(rad): 2.577383585 Af0(s): 8.591887207e-05 Af1(s/s): 3.637979e-12 week: 145 ******** Week 145 almanac for PRN-20 ******** ID: 20 Health: 0 Eccentricity: 0.005264759064 Time of Applicability(s): 589824 Orbital Inclination(rad): 0.9415909634 Rate of Right Ascen(r/s): -8.400349908e-09 SQRT(A) (m 1/2): 5153.671387 Right Ascen at Week(rad): -0.5311292383 Argument of Perigee(rad): 3.110236679 Mean Anom(rad): -0.9707252138 Af0(s): 0.0004084914795 Af1(s/s): 0 week: 145 ******** Week 145 almanac for PRN-21 ******** ID: 21 Health: 0 Eccentricity: 0.02455186844 Time of Applicability(s): 589824 Orbital Inclination(rad): 0.9590519791 Rate of Right Ascen(r/s): -7.954617056e-09 SQRT(A) (m 1/2): 5153.543457 Right Ascen at Week(rad): -1.503330384 Argument of Perigee(rad): -1.021008774 Mean Anom(rad): 0.340969175 Af0(s): 0.0001236025879 Af1(s/s): 0 week: 145 ******** Week 145 almanac for PRN-22 ******** ID: 22 Health: 255 Eccentricity: 0.006910324097 Time of Applicability(s): 405504 Orbital Inclination(rad): 0.9383672069 Rate of Right Ascen(r/s): -8.366062766e-09 SQRT(A) (m 1/2): 5153.572754 Right Ascen at Week(rad): -0.4837713265 Argument of Perigee(rad): -0.8541831206 Mean Anom(rad): -2.675572962 Af0(s): -0.000326340979 Af1(s/s): 7.275958e-12 week: 145 ******** Week 145 almanac for PRN-23 ******** ID: 23 Health: 0 Eccentricity: 0.001962661743 Time of Applicability(s): 589824 Orbital Inclination(rad): 0.967357047 Rate of Right Ascen(r/s): -8.103194673e-09 SQRT(A) (m 1/2): 5153.645996 Right Ascen at Week(rad): -0.4050053828 Argument of Perigee(rad): 2.927261908 Mean Anom(rad): -2.693712584 Af0(s): 6.783068848e-06 Af1(s/s): -3.637979e-12 week: 145 ******** Week 145 almanac for PRN-24 ******** ID: 24 Health: 0 Eccentricity: 0.01230239868 Time of Applicability(s): 589824 Orbital Inclination(rad): 0.9340828465 Rate of Right Ascen(r/s): -8.160339911e-09 SQRT(A) (m 1/2): 5153.63916 Right Ascen at Week(rad): 1.640274871 Argument of Perigee(rad): 0.8025595738 Mean Anom(rad): -1.716635731 Af0(s): 0.0002185655518 Af1(s/s): 0 week: 145 ******** Week 145 almanac for PRN-25 ******** ID: 25 Health: 0 Eccentricity: 0.0104060173 Time of Applicability(s): 589824 Orbital Inclination(rad): 0.9581531623 Rate of Right Ascen(r/s): -8.103194673e-09 SQRT(A) (m 1/2): 5153.662598 Right Ascen at Week(rad): 2.758876807 Argument of Perigee(rad): 0.9728527882 Mean Anom(rad): 2.70196934 Af0(s): 0.0002170582031 Af1(s/s): 7.275958e-12 week: 145 ******** Week 145 almanac for PRN-26 ******** ID: 26 Health: 0 Eccentricity: 0.006812572479 Time of Applicability(s): 589824 Orbital Inclination(rad): 0.9389724103 Rate of Right Ascen(r/s): -8.308917528e-09 SQRT(A) (m 1/2): 5153.624512 Right Ascen at Week(rad): 2.712338691 Argument of Perigee(rad): 0.3532256666 Mean Anom(rad): 2.052772642 Af0(s): 0.0001394297485 Af1(s/s): 3.637979e-12 week: 145 ******** Week 145 almanac for PRN-27 ******** ID: 27 Health: 0 Eccentricity: 0.01008033752 Time of Applicability(s): 589824 Orbital Inclination(rad): 0.9739064259 Rate of Right Ascen(r/s): -7.703178011e-09 SQRT(A) (m 1/2): 5153.606445 Right Ascen at Week(rad): -2.473308457 Argument of Perigee(rad): 0.6316502953 Mean Anom(rad): 0.205414109 Af0(s): 6.556966553e-05 Af1(s/s): 2.182787e-11 week: 145 ******** Week 145 almanac for PRN-29 ******** ID: 29 Health: 0 Eccentricity: 0.001783847809 Time of Applicability(s): 589824 Orbital Inclination(rad): 0.9822594307 Rate of Right Ascen(r/s): -7.611745631e-09 SQRT(A) (m 1/2): 5153.721191 Right Ascen at Week(rad): -2.398057636 Argument of Perigee(rad): 2.278450203 Mean Anom(rad): 0.3206263278 Af0(s): -0.0003723151123 Af1(s/s): -3.637979e-12 week: 145 ******** Week 145 almanac for PRN-30 ******** ID: 30 Health: 0 Eccentricity: 0.005428314209 Time of Applicability(s): 589824 Orbital Inclination(rad): 0.9357726222 Rate of Right Ascen(r/s): -8.148910863e-09 SQRT(A) (m 1/2): 5153.529297 Right Ascen at Week(rad): 1.73615691 Argument of Perigee(rad): -2.750932764 Mean Anom(rad): -2.663675997 Af0(s): -0.0004017084106 Af1(s/s): -3.637979e-12 week: 145 ******** Week 145 almanac for PRN-31 ******** ID: 31 Health: 0 Eccentricity: 0.01046991348 Time of Applicability(s): 589824 Orbital Inclination(rad): 0.954833532 Rate of Right Ascen(r/s): -7.954617056e-09 SQRT(A) (m 1/2): 5153.62207 Right Ascen at Week(rad): 1.740657735 Argument of Perigee(rad): 0.368624272 Mean Anom(rad): -3.134885983 Af0(s): -0.0001273709595 Af1(s/s): 0 week: 145 ******** Week 145 almanac for PRN-32 ******** ID: 32 Health: 0 Eccentricity: 0.005451202393 Time of Applicability(s): 589824 Orbital Inclination(rad): 0.9580932411 Rate of Right Ascen(r/s): -7.806039438e-09 SQRT(A) (m 1/2): 5153.719727 Right Ascen at Week(rad): 0.6616760218 Argument of Perigee(rad): -2.369814188 Mean Anom(rad): 0.8789736134 Af0(s): -4.295943603e-05 Af1(s/s): -7.275958e-12 week: 145